Location: Bergnershof
(48.9468°N, 10.9431°E)
Time: 04:30:54
(UTC+00:00)

Cosmos 2333 Rocket - Pass Details

Date: 02 July 2021
Orbit: 841 x 861 km, 70.8° (Epoch: 26 July)

Event Time Altitude Azimuth Distance (km) Brightness Sun altitude
Rises 01:08:15 0° 334° (NNW) 3,421 5.9 -14.1°
Reaches altitude 10° 01:12:01 10° 359° (N) 2,479 5.7 -13.8°
Maximum altitude 01:15:00 14° 31° (NNE) 2,180 5.7 -13.6°
Drops below altitude 10° 01:17:59 10° 63° (ENE) 2,469 5.5 -13.4°
Sets 01:21:42 0° 87° (E) 3,398 5.8 -13.1°
